,,,PA_Meas_PMT16A,,PR_Meas_QMR101_102,,RH_Meas_QMH101,,SR_Meas_QMS101,,TA_Meas_QMH101,,GenWind,,GenWind,
date,time,status,PA,status,PR,status,RH,status,SR,status,TA,status,DirAvg,status,SpdAvg,
2009-06-11, 00:00:04,VALID,1002.6,VALID,0,VALID,87.8932,VALID,0,VALID,22.5306,VALID,122,VALID,1.2082,
2009-06-11, 00:01:04,VALID,1002.57,VALID,0,VALID,86.97,VALID,0,VALID,22.5306,VALID,129,VALID,1.73203,
2009-06-11, 00:02:04,VALID,1002.56,VALID,0,VALID,86.7564,VALID,0,VALID,22.6282,VALID,145,VALID,1.50078,
2009-06-11, 00:03:04,VALID,1002.53,VALID,0,VALID,87.1532,VALID,0,VALID,22.6672,VALID,146,VALID,1.20625,
2009-06-11, 00:04:04,VALID,1002.51,VALID,0,VALID,87.6033,VALID,0,VALID,22.6672,VALID,153,VALID,1.40703,
2009-06-11, 00:05:04,VALID,1002.47,VALID,0,VALID,87.3286,VALID,0,VALID,22.6477,VALID,153,VALID,1.77813,
2009-06-11, 00:06:04,VALID,1002.45,VALID,0,VALID,86.6877,VALID,0,VALID,22.6477,VALID,137,VALID,2.15508,
2009-06-11, 00:07:04,VALID,1002.4,VALID,0,VALID,87.2752,VALID,0,VALID,22.6672,VALID,134,VALID,2.02344,
2009-06-11, 00:08:04,VALID,1002.39,VALID,0,VALID,86.3673,VALID,0,VALID,22.6867,VALID,132,VALID,2.55234,
2009-06-11, 00:09:04,VALID,1002.36,VALID,0,VALID,86.6801,VALID,0,VALID,22.7452,VALID,134,VALID,2.13555,
2009-06-11, 00:10:04,VALID,1002.33,VALID,0,VALID,86.1766,VALID,0,VALID,22.7647,VALID,141,VALID,2.03477,
2009-06-11, 00:11:04,VALID,1002.29,VALID,0,VALID,86.291,VALID,0,VALID,22.7842,VALID,137,VALID,2.17812,
2009-06-11, 00:12:04,VALID,1002.29,VALID,0,VALID,86.3826,VALID,0,VALID,22.7842,VALID,141,VALID,2.01445,
2009-06-11, 00:13:04,VALID,1002.26,VALID,0,VALID,86.5733,VALID,0,VALID,22.8037,VALID,140,VALID,1.49336,
2009-06-11, 00:14:04,VALID,1002.21,VALID,0,VALID,86.3444,VALID,0,VALID,22.8037,VALID,140,VALID,1.94414,
2009-06-11, 00:15:04,VALID,1002.2,VALID,0,VALID,85.9095,VALID,0,VALID,22.8232,VALID,137,VALID,2.35977,
2009-06-11, 00:16:04,VALID,1002.17,VALID,0,VALID,85.818,VALID,0.112286,VALID,22.8427,VALID,135,VALID,2.5207,
2009-06-11, 00:17:04,VALID,1002.17,VALID,0,VALID,86.146,VALID,0,VALID,22.8818,VALID,134,VALID,1.90391,
2009-06-11, 00:18:04,VALID,1002.15,VALID,0,VALID,86.2147,VALID,0,VALID,22.8623,VALID,140,VALID,1.67148,
2009-06-11, 00:19:04,VALID,1002.12,VALID,0,VALID,85.8409,VALID,0,VALID,22.8232,VALID,132,VALID,2.125,
2009-06-11, 00:20:04,VALID,1002.12,VALID,0,VALID,85.3144,VALID,0,VALID,22.8623,VALID,140,VALID,2.28555,
2009-06-11, 00:21:04,VALID,1002.12,VALID,0,VALID,85.6806,VALID,0.112286,VALID,22.9013,VALID,131,VALID,1.75781,
2009-06-11, 00:22:04,VALID,1002.1,VALID,0,VALID,85.6577,VALID,0,VALID,22.9208,VALID,137,VALID,1.41602,
2009-06-11, 00:23:04,VALID,1002.08,VALID,0,VALID,85.9095,VALID,0,VALID,22.9208,VALID,140,VALID,1.34023,
2009-06-11, 00:24:04,VALID,1002.07,VALID,0,VALID,86.1537,VALID,0,VALID,22.8818,VALID,131,VALID,1.0082,
2009-06-11, 00:25:04,VALID,1001.99,VALID,0,VALID,85.9706,VALID,0,VALID,22.8427,VALID,143,VALID,1.67344,
2009-06-11, 00:26:04,VALID,1001.99,VALID,0,VALID,86.1079,VALID,0,VALID,22.8215,VALID,128,VALID,1.61563,
2009-06-11, 00:27:04,VALID,1001.99,VALID,0,VALID,85.9629,VALID,0,VALID,22.8623,VALID,138,VALID,0.906641,
2009-06-11, 00:28:04,VALID,1001.95,VALID,0,VALID,86.1689,VALID,0,VALID,22.841,VALID,134,VALID,1.43438,
2009-06-11, 00:29:04,VALID,1001.91,VALID,0,VALID,86.0697,VALID,0,VALID,22.8427,VALID,131,VALID,1.16836,
2009-06-11, 00:30:04,VALID,1001.87,VALID,0,VALID,86.2452,VALID,0.112286,VALID,22.8427,VALID,132,VALID,1.62695,
2009-06-11, 00:31:04,VALID,1001.84,VALID,0,VALID,85.6654,VALID,0,VALID,22.8623,VALID,141,VALID,1.52109,
2009-06-11, 00:32:04,VALID,1001.83,VALID,0,VALID,85.8561,VALID,0,VALID,22.8818,VALID,129,VALID,2.10469,
2009-06-11, 00:33:04,VALID,1001.81,VALID,0,VALID,85.9095,VALID,0,VALID,22.8818,VALID,135,VALID,1.6,
2009-06-11, 00:34:04,VALID,1001.8,VALID,0,VALID,85.4365,VALID,0,VALID,22.8995,VALID,135,VALID,1.70234,
2009-06-11, 00:35:04,VALID,1001.79,VALID,0,VALID,85.1618,VALID,0,VALID,22.9403,VALID,133,VALID,1.78047,
2009-06-11, 00:36:04,VALID,1001.76,VALID,0,VALID,85.5738,VALID,0,VALID,22.9581,VALID,136,VALID,1.53359,
2009-06-11, 00:37:04,VALID,1001.74,VALID,0,VALID,84.4675,VALID,0,VALID,22.9598,VALID,135,VALID,2.59023,
2009-06-11, 00:38:04,VALID,1001.75,VALID,0,VALID,84.7803,VALID,0,VALID,22.9988,VALID,160,VALID,1.3793,
2009-06-11, 00:39:04,VALID,1001.78,VALID,0,VALID,85.1618,VALID,0,VALID,23.0396,VALID,175,VALID,1.67305,
2009-06-11, 00:40:04,VALID,1001.77,VALID,0,VALID,85.8103,VALID,0,VALID,22.9988,VALID,179,VALID,1.12422,
2009-06-11, 00:41:04,VALID,1001.75,VALID,0,VALID,85.7493,VALID,0,VALID,22.9793,VALID,170,VALID,1.08008,
2009-06-11, 00:42:04,VALID,1001.75,VALID,0,VALID,85.3144,VALID,0,VALID,22.9598,VALID,167,VALID,1.83555,
2009-06-11, 00:43:04,VALID,1001.7,VALID,0,VALID,85.4899,VALID,0,VALID,22.9793,VALID,168,VALID,1.60312,
2009-06-11, 00:44:04,VALID,1001.68,VALID,0,VALID,85.406,VALID,0,VALID,22.9793,VALID,166,VALID,1.55195,
2009-06-11, 00:45:04,VALID,1001.64,VALID,0,VALID,84.8109,VALID,0,VALID,22.9793,VALID,166,VALID,1.78437,
2009-06-11, 00:46:04,VALID,1001.67,VALID,0,VALID,86.0926,VALID,0,VALID,22.9988,VALID,169,VALID,1.18789,
2009-06-11, 00:47:04,VALID,1001.65,VALID,0,VALID,85.1008,VALID,0,VALID,22.9793,VALID,175,VALID,1.62969,
2009-06-11, 00:48:04,VALID,1001.61,VALID,0,VALID,85.8485,VALID,0,VALID,22.9793,VALID,155,VALID,1.07227,
2009-06-11, 00:49:04,VALID,1001.61,VALID,0,VALID,85.3983,VALID,0,VALID,22.9598,VALID,168,VALID,1.11719,
2009-06-11, 00:50:04,VALID,1001.61,VALID,0,VALID,85.4517,VALID,0,VALID,22.9598,VALID,169,VALID,1.15937,
2009-06-11, 00:51:04,VALID,1001.59,VALID,0,VALID,85.818,VALID,0,VALID,22.9598,VALID,174,VALID,1.09687,
2009-06-11, 00:52:04,VALID,1001.59,VALID,0,VALID,85.4365,VALID,0,VALID,22.9403,VALID,160,VALID,1.34063,
2009-06-11, 00:53:04,VALID,1001.59,VALID,0,VALID,85.4823,VALID,0,VALID,22.9598,VALID,170,VALID,0.756641,
2009-06-11, 00:54:04,VALID,1001.56,VALID,0,VALID,85.3602,VALID,0,VALID,22.9598,VALID,172,VALID,1.1207,
2009-06-11, 00:55:04,VALID,1001.54,VALID,0,VALID,85.3831,VALID,0,VALID,22.9598,VALID,168,VALID,1.10664,
2009-06-11, 00:56:04,VALID,1001.5,VALID,0,VALID,85.2305,VALID,0,VALID,22.9793,VALID,158,VALID,1.16797,
2009-06-11, 00:57:04,VALID,1001.48,VALID,0,VALID,85.2152,VALID,0,VALID,22.9988,VALID,152,VALID,1.35859,
2009-06-11, 00:58:04,VALID,1001.44,VALID,0,VALID,84.9482,VALID,0,VALID,23.0183,VALID,156,VALID,1.09414,
2009-06-11, 00:59:04,VALID,1001.44,VALID,0,VALID,84.9329,VALID,0,VALID,23.0183,VALID,134,VALID,0.825391,
2009-06-11, 01:00:04,VALID,1001.42,VALID,0,VALID,84.582,VALID,0,VALID,23.0183,VALID,126,VALID,1.63906,
2009-06-11, 01:01:04,VALID,1001.43,VALID,0,VALID,84.6277,VALID,0,VALID,23.0573,VALID,139,VALID,1.49453,
2009-06-11, 01:02:04,VALID,1001.42,VALID,0,VALID,84.1852,VALID,0,VALID,23.1159,VALID,145,VALID,1.30195,
2009-06-11, 01:03:04,VALID,1001.43,VALID,0,VALID,84.4217,VALID,0,VALID,23.1354,VALID,144,VALID,0.844141,
2009-06-11, 01:04:04,VALID,1001.41,VALID,0,VALID,84.3302,VALID,0,VALID,23.1354,VALID,148,VALID,1.19609,
2009-06-11, 01:05:04,VALID,1001.39,VALID,0,VALID,83.8648,VALID,0,VALID,23.1549,VALID,151,VALID,1.5707,
2009-06-11, 01:06:04,VALID,1001.36,VALID,0,VALID,83.4833,VALID,0,VALID,23.1744,VALID,139,VALID,1.51367,
2009-06-11, 01:07:04,VALID,1001.31,VALID,0,VALID,83.3155,VALID,0,VALID,23.2134,VALID,129,VALID,1.2668,
2009-06-11, 01:08:04,VALID,1001.31,VALID,0,VALID,82.316,VALID,0,VALID,23.2329,VALID,135,VALID,1.70391,
2009-06-11, 01:09:04,VALID,1001.31,VALID,0,VALID,83.7732,VALID,0,VALID,23.2524,VALID,126,VALID,1.65977,
2009-06-11, 01:10:04,VALID,1001.28,VALID,0,VALID,83.5749,VALID,0,VALID,23.2702,VALID,128,VALID,1.10391,
2009-06-11, 01:11:04,VALID,1001.24,VALID,0,VALID,83.1934,VALID,0,VALID,23.2719,VALID,122,VALID,1.55898,
2009-06-11, 01:12:04,VALID,1001.23,VALID,0,VALID,84.2157,VALID,0,VALID,23.2524,VALID,119,VALID,0.948828,
2009-06-11, 01:13:04,VALID,1001.21,VALID,0,VALID,83.9563,VALID,0.112286,VALID,23.2134,VALID,116,VALID,1.3957,
2009-06-11, 01:14:04,VALID,1001.17,VALID,0,VALID,84.582,VALID,0,VALID,23.1744,VALID,127,VALID,0.900781,
2009-06-11, 01:15:04,VALID,1001.16,VALID,0,VALID,83.7427,VALID,0,VALID,23.1549,VALID,113,VALID,1.49766,
2009-06-11, 01:16:04,VALID,1001.18,VALID,0,VALID,84.0784,VALID,0,VALID,23.1939,VALID,122,VALID,1.36914,
2009-06-11, 01:17:04,VALID,1001.17,VALID,0,VALID,83.8724,VALID,0,VALID,23.1939,VALID,119,VALID,1.11055,
2009-06-11, 01:18:04,VALID,1001.12,VALID,0,VALID,83.468,VALID,0,VALID,23.1939,VALID,124,VALID,1.51758,
2009-06-11, 01:19:04,VALID,1001.13,VALID,0,VALID,83.7046,VALID,0,VALID,23.2134,VALID,104,VALID,0.626562,
2009-06-11, 01:20:04,VALID,1001.1,VALID,0,VALID,83.346,VALID,0,VALID,23.2329,VALID,109,VALID,1.04805,
2009-06-11, 01:21:04,VALID,1001.13,VALID,0,VALID,83.4986,VALID,0,VALID,23.2329,VALID,120,VALID,0.702344,
2009-06-11, 01:22:04,VALID,1001.11,VALID,0,VALID,83.8877,VALID,0,VALID,23.2134,VALID,103,VALID,0.889453,
2009-06-11, 01:23:04,VALID,1001.1,VALID,0,VALID,84.2005,VALID,0,VALID,23.2134,VALID,80,VALID,0.991797,
2009-06-11, 01:24:04,VALID,1001.09,VALID,0,VALID,84.0403,VALID,0,VALID,23.1744,VALID,95,VALID,0.839844,
2009-06-11, 01:25:04,VALID,1001.08,VALID,0,VALID,84.788,VALID,0,VALID,23.1549,VALID,94,VALID,0.0273438,
2009-06-11, 01:26:04,VALID,1001.08,VALID,0,VALID,85.1237,VALID,0,VALID,23.0964,VALID,94,VALID,0.276953,
2009-06-11, 01:27:04,VALID,1001.06,VALID,0,VALID,85.5357,VALID,0,VALID,23.0591,VALID,94,VALID,0,
2009-06-11, 01:28:04,VALID,1001.05,VALID,0,VALID,86.0545,VALID,0,VALID,23.0201,VALID,94,VALID,0,
2009-06-11, 01:29:04,VALID,1001.05,VALID,0,VALID,86.3749,VALID,0,VALID,22.9403,VALID,94,VALID,0.199609,
2009-06-11, 01:30:04,VALID,1000.99,VALID,0,VALID,86.0697,VALID,0,VALID,22.8818,VALID,96,VALID,0.235156,
2009-06-11, 01:31:04,VALID,1000.98,VALID,0,VALID,86.8861,VALID,0,VALID,22.8818,VALID,103,VALID,0.564844,
2009-06-11, 01:32:04,VALID,1000.97,VALID,0,VALID,86.5733,VALID,0,VALID,22.8835,VALID,124,VALID,0.959766,
2009-06-11, 01:33:04,VALID,1000.95,VALID,0,VALID,85.2381,VALID,0,VALID,22.9013,VALID,127,VALID,1.41484,
2009-06-11, 01:34:04,VALID,1000.93,VALID,0,VALID,85.2076,VALID,0,VALID,23.0183,VALID,140,VALID,0.906641,
2009-06-11, 01:35:04,VALID,1000.9,VALID,0,VALID,84.5362,VALID,0,VALID,23.0573,VALID,122,VALID,1.12305,
2009-06-11, 01:36:04,VALID,1000.88,VALID,0,VALID,83.8648,VALID,0,VALID,23.0964,VALID,142,VALID,0.940625,
2009-06-11, 01:37:04,VALID,1000.87,VALID,0,VALID,84.2844,VALID,0,VALID,23.1549,VALID,153,VALID,0.753516,
2009-06-11, 01:38:04,VALID,1000.84,VALID,0,VALID,84.4217,VALID,0,VALID,23.1939,VALID,146,VALID,1.15039,
2009-06-11, 01:39:04,VALID,1000.86,VALID,0,VALID,84.8261,VALID,0,VALID,23.1939,VALID,141,VALID,0.884766,
2009-06-11, 01:40:04,VALID,1000.82,VALID,0,VALID,84.9711,VALID,0,VALID,23.2152,VALID,142,VALID,0.801953,
2009-06-11, 01:41:04,VALID,1000.8,VALID,0,VALID,84.3226,VALID,0,VALID,23.1744,VALID,145,VALID,1.06914,
2009-06-11, 01:42:04,VALID,1000.79,VALID,0,VALID,84.2615,VALID,0,VALID,23.1939,VALID,147,VALID,0.964453,
2009-06-11, 01:43:04,VALID,1000.79,VALID,0,VALID,84.9177,VALID,0,VALID,23.2134,VALID,146,VALID,0.720703,
2009-06-11, 01:44:04,VALID,1000.8,VALID,0,VALID,84.8337,VALID,0,VALID,23.1939,VALID,147,VALID,0.798047,
2009-06-11, 01:45:04,VALID,1000.79,VALID,0,VALID,85.0855,VALID,0,VALID,23.1939,VALID,126,VALID,0.894531,
2009-06-11, 01:46:04,VALID,1000.78,VALID,0,VALID,84.8337,VALID,0,VALID,23.1744,VALID,127,VALID,0.716406,
2009-06-11, 01:47:04,VALID,1000.76,VALID,0,VALID,84.8337,VALID,0,VALID,23.1744,VALID,142,VALID,0.770312,
2009-06-11, 01:48:04,VALID,1000.76,VALID,0,VALID,84.9863,VALID,0,VALID,23.1957,VALID,142,VALID,0.514453,
2009-06-11, 01:49:04,VALID,1000.77,VALID,0,VALID,85.5051,VALID,0,VALID,23.1762,VALID,142,VALID,0.296875,
2009-06-11, 01:50:04,VALID,1000.75,VALID,0,VALID,85.5586,VALID,0,VALID,23.1371,VALID,142,VALID,0.258594,
2009-06-11, 01:51:04,VALID,1000.75,VALID,0,VALID,85.8866,VALID,0,VALID,23.0964,VALID,142,VALID,0.279687,
2009-06-11, 01:52:04,VALID,1000.73,VALID,0,VALID,86.0163,VALID,0,VALID,23.0769,VALID,142,VALID,0.237891,
2009-06-11, 01:53:04,VALID,1000.77,VALID,0,VALID,87.0463,VALID,0,VALID,23.0573,VALID,286,VALID,0.605078,
2009-06-11, 01:54:04,VALID,1000.77,VALID,0,VALID,87.6186,VALID,0,VALID,22.9598,VALID,286,VALID,0.515234,
2009-06-11, 01:55:04,VALID,1000.78,VALID,0,VALID,88.0382,VALID,0,VALID,22.9013,VALID,286,VALID,0.345703,
2009-06-11, 01:56:04,VALID,1000.76,VALID,0,VALID,88.2976,VALID,0,VALID,22.8427,VALID,286,VALID,0.413672,
2009-06-11, 01:57:04,VALID,1000.76,VALID,0,VALID,88.5341,VALID,0.112286,VALID,22.7842,VALID,256,VALID,0.671875,
2009-06-11, 01:58:04,VALID,1000.74,VALID,0,VALID,88.8698,VALID,0,VALID,22.7842,VALID,249,VALID,0.334766,
2009-06-11, 01:59:04,VALID,1000.73,VALID,0,VALID,88.3205,VALID,0,VALID,22.7842,VALID,200,VALID,0.607422,
2009-06-11, 02:00:04,VALID,1000.7,VALID,0,VALID,87.7025,VALID,0,VALID,22.7647,VALID,168,VALID,0.561328,
2009-06-11, 02:01:04,VALID,1000.7,VALID,0,VALID,87.1074,VALID,0,VALID,22.825,VALID,166,VALID,1.03398,
2009-06-11, 02:02:04,VALID,1000.65,VALID,0,VALID,86.4512,VALID,0,VALID,22.903,VALID,163,VALID,1.1457,
2009-06-11, 02:03:04,VALID,1000.65,VALID,0,VALID,86.0697,VALID,0,VALID,22.9811,VALID,166,VALID,1.14844,
2009-06-11, 02:04:04,VALID,1000.63,VALID,0,VALID,85.7493,VALID,0,VALID,23.0183,VALID,175,VALID,1.27617,
2009-06-11, 02:05:04,VALID,1000.62,VALID,0,VALID,85.2915,VALID,0,VALID,23.0573,VALID,175,VALID,0.998438,
2009-06-11, 02:06:04,VALID,1000.66,VALID,0,VALID,85.2305,VALID,0,VALID,23.0769,VALID,176,VALID,0.805078,
2009-06-11, 02:07:04,VALID,1000.66,VALID,0,VALID,85.1847,VALID,0,VALID,23.0964,VALID,184,VALID,1.06172,
2009-06-11, 02:08:04,VALID,1000.69,VALID,0,VALID,85.4441,VALID,0,VALID,23.1159,VALID,191,VALID,0.910156,
2009-06-11, 02:09:04,VALID,1000.69,VALID,0,VALID,84.8109,VALID,0,VALID,23.1354,VALID,205,VALID,0.982031,
2009-06-11, 02:10:04,VALID,1000.69,VALID,0,VALID,85.5967,VALID,0,VALID,23.1762,VALID,229,VALID,0.589453,
2009-06-11, 02:11:04,VALID,1000.66,VALID,0,VALID,86.6267,VALID,0,VALID,23.1159,VALID,243,VALID,0.535547,
2009-06-11, 02:12:04,VALID,1000.63,VALID,0,VALID,86.7183,VALID,0,VALID,23.0378,VALID,282,VALID,0.701172,
2009-06-11, 02:13:04,VALID,1000.63,VALID,0,VALID,87.4202,VALID,0,VALID,22.9598,VALID,316,VALID,0.681641,
2009-06-11, 02:14:04,VALID,1000.62,VALID,0,VALID,87.6338,VALID,0,VALID,22.8818,VALID,318,VALID,0.358203,
2009-06-11, 02:15:04,VALID,1000.61,VALID,0,VALID,87.9237,VALID,0,VALID,22.825,VALID,318,VALID,0.623438,
2009-06-11, 02:16:04,VALID,1000.6,VALID,0,VALID,88.6486,VALID,0,VALID,22.7664,VALID,318,VALID,0.782812,
2009-06-11, 02:17:04,VALID,1000.6,VALID,0,VALID,89.4726,VALID,0,VALID,22.7062,VALID,314,VALID,0.653125,
2009-06-11, 02:18:04,VALID,1000.63,VALID,0,VALID,89.9456,VALID,0,VALID,22.6477,VALID,310,VALID,0.463672,
2009-06-11, 02:19:04,VALID,1000.63,VALID,0,VALID,89.6251,VALID,0.112286,VALID,22.5892,VALID,301,VALID,0.435937,
2009-06-11, 02:20:04,VALID,1000.63,VALID,0,VALID,89.6633,VALID,0,VALID,22.5501,VALID,301,VALID,0.347266,
2009-06-11, 02:21:04,VALID,1000.65,VALID,0,VALID,89.999,VALID,0,VALID,22.5306,VALID,301,VALID,0.244141,
2009-06-11, 02:22:04,VALID,1000.61,VALID,0,VALID,90.4415,VALID,0.112286,VALID,22.5306,VALID,322,VALID,0.583203,
2009-06-11, 02:23:04,VALID,1000.63,VALID,0,VALID,90.8383,VALID,0,VALID,22.5111,VALID,325,VALID,0.574609,
2009-06-11, 02:24:04,VALID,1000.58,VALID,0,VALID,90.8764,VALID,0,VALID,22.4721,VALID,332,VALID,0.667578,
2009-06-11, 02:25:04,VALID,1000.56,VALID,0,VALID,90.8611,VALID,0,VALID,22.4543,VALID,332,VALID,0.15625,
2009-06-11, 02:26:04,VALID,1000.58,VALID,0,VALID,90.8383,VALID,0,VALID,22.4136,VALID,332,VALID,0.114453,
2009-06-11, 02:27:04,VALID,1000.54,VALID,0,VALID,90.9374,VALID,0,VALID,22.3941,VALID,332,VALID,0.278125,
2009-06-11, 02:28:04,VALID,1000.52,VALID,0,VALID,90.7162,VALID,0,VALID,22.3941,VALID,121,VALID,0.823438,
2009-06-11, 02:29:04,VALID,1000.51,VALID,0,VALID,90.1592,VALID,0,VALID,22.3941,VALID,150,VALID,0.779297,
2009-06-11, 02:30:04,VALID,1000.49,VALID,0,VALID,89.9227,VALID,0,VALID,22.4331,VALID,123,VALID,0.694922,
2009-06-11, 02:31:04,VALID,1000.52,VALID,0,VALID,90.2431,VALID,0,VALID,22.5111,VALID,133,VALID,1.00547,
2009-06-11, 02:32:04,VALID,1000.44,VALID,0,VALID,89.9837,VALID,0,VALID,22.5696,VALID,125,VALID,0.853516,
2009-06-11, 02:33:04,VALID,1000.45,VALID,0,VALID,90.3728,VALID,0,VALID,22.5892,VALID,116,VALID,0.875781,
2009-06-11, 02:34:04,VALID,1000.46,VALID,0,VALID,90.678,VALID,0,VALID,22.6087,VALID,129,VALID,1.03828,
2009-06-11, 02:35:04,VALID,1000.43,VALID,0,VALID,90.8077,VALID,0,VALID,22.5892,VALID,131,VALID,0.746484,
2009-06-11, 02:36:04,VALID,1000.4,VALID,0,VALID,91.1206,VALID,0,VALID,22.6104,VALID,117,VALID,0.747266,
2009-06-11, 02:37:04,VALID,1000.39,VALID,0,VALID,91.0671,VALID,0,VALID,22.5909,VALID,117,VALID,0.374609,
2009-06-11, 02:38:04,VALID,1000.4,VALID,0,VALID,91.1053,VALID,0,VALID,22.5909,VALID,117,VALID,0.298828,
2009-06-11, 02:39:04,VALID,1000.43,VALID,0,VALID,91.2655,VALID,0,VALID,22.5696,VALID,112,VALID,0.409375,
2009-06-11, 02:40:04,VALID,1000.42,VALID,0,VALID,91.5478,VALID,0,VALID,22.5501,VALID,10,VALID,1.2625,
2009-06-11, 02:41:04,VALID,1000.45,VALID,0,VALID,91.6699,VALID,0,VALID,22.5111,VALID,6,VALID,1.49023,
2009-06-11, 02:42:04,VALID,1000.49,VALID,0,VALID,91.4257,VALID,0,VALID,22.4738,VALID,21,VALID,1.30938,
2009-06-11, 02:43:04,VALID,1000.48,VALID,0,VALID,91.5097,VALID,0,VALID,22.3941,VALID,10,VALID,1.66758,
2009-06-11, 02:44:04,VALID,1000.49,VALID,0,VALID,91.38,VALID,0,VALID,22.3356,VALID,357,VALID,1.60898,
2009-06-11, 02:45:04,VALID,1000.48,VALID,0,VALID,91.38,VALID,0,VALID,22.2788,VALID,351,VALID,1.22539,
2009-06-11, 02:46:04,VALID,1000.54,VALID,0,VALID,91.2655,VALID,0,VALID,22.2381,VALID,11,VALID,1.00312,
2009-06-11, 02:47:04,VALID,1000.54,VALID,0,VALID,90.9222,VALID,0,VALID,22.199,VALID,350,VALID,1.24922,
2009-06-11, 02:48:04,VALID,1000.51,VALID,0,VALID,90.6628,VALID,0,VALID,22.1795,VALID,353,VALID,1.44336,
2009-06-11, 02:49:04,VALID,1000.55,VALID,0,VALID,90.9222,VALID,0,VALID,22.16,VALID,353,VALID,0.959375,
2009-06-11, 02:50:04,VALID,1000.55,VALID,0,VALID,90.2355,VALID,0,VALID,22.1617,VALID,345,VALID,1.21992,
2009-06-11, 02:51:04,VALID,1000.57,VALID,0,VALID,90.3957,VALID,0,VALID,22.16,VALID,342,VALID,0.952344,
2009-06-11, 02:52:04,VALID,1000.56,VALID,0,VALID,90.7849,VALID,0,VALID,22.2007,VALID,340,VALID,0.921484,
2009-06-11, 02:53:04,VALID,1000.59,VALID,0,VALID,90.9832,VALID,0,VALID,22.2007,VALID,338,VALID,1.09609,
2009-06-11, 02:54:04,VALID,1000.58,VALID,0,VALID,91.0443,VALID,0,VALID,22.1795,VALID,338,VALID,1.09492,
2009-06-11, 02:55:04,VALID,1000.61,VALID,0,VALID,91.1282,VALID,0,VALID,22.1795,VALID,332,VALID,1.19727,
2009-06-11, 02:56:04,VALID,1000.62,VALID,0,VALID,91.1816,VALID,0,VALID,22.16,VALID,332,VALID,0.896094,
2009-06-11, 02:57:04,VALID,1000.64,VALID,0,VALID,91.4334,VALID,0,VALID,22.1812,VALID,332,VALID,0.575781,
2009-06-11, 02:58:04,VALID,1000.61,VALID,0,VALID,91.3571,VALID,0,VALID,22.1405,VALID,322,VALID,0.50625,
2009-06-11, 02:59:04,VALID,1000.62,VALID,0,VALID,91.4791,VALID,0,VALID,22.1405,VALID,322,VALID,0.385547,
2009-06-11, 03:00:04,VALID,1000.59,VALID,0,VALID,91.3952,VALID,0,VALID,22.121,VALID,322,VALID,0.660156,
2009-06-11, 03:01:04,VALID,1000.58,VALID,0,VALID,90.9909,VALID,0,VALID,22.1015,VALID,325,VALID,0.875,
2009-06-11, 03:02:04,VALID,1000.62,VALID,0,VALID,91.1053,VALID,0,VALID,22.1405,VALID,320,VALID,0.569531,
2009-06-11, 03:03:04,VALID,1000.68,VALID,0,VALID,91.0519,VALID,0,VALID,22.1422,VALID,248,VALID,0.555469,
2009-06-11, 03:04:04,VALID,1000.65,VALID,0,VALID,90.9146,VALID,0,VALID,22.16,VALID,250,VALID,0.642187,
2009-06-11, 03:05:04,VALID,1000.66,VALID,0,VALID,90.5331,VALID,0,VALID,22.1617,VALID,280,VALID,0.617969,
2009-06-11, 03:06:04,VALID,1000.64,VALID,0,VALID,90.6323,VALID,0,VALID,22.16,VALID,338,VALID,0.607422,
2009-06-11, 03:07:04,VALID,1000.65,VALID,0,VALID,90.762,VALID,0,VALID,22.16,VALID,15,VALID,0.870703,
2009-06-11, 03:08:04,VALID,1000.63,VALID,0,VALID,90.5178,VALID,0,VALID,22.1812,VALID,16,VALID,1.13281,
2009-06-11, 03:09:04,VALID,1000.7,VALID,0,VALID,90.9222,VALID,0,VALID,22.16,VALID,16,VALID,0.752734,
2009-06-11, 03:10:05,VALID,1000.69,VALID,0,VALID,91.174,VALID,0,VALID,22.16,VALID,16,VALID,0.4125,
2009-06-11, 03:11:05,VALID,1000.71,VALID,0,VALID,91.2731,VALID,0,VALID,22.1405,VALID,16,VALID,0.262891,
2009-06-11, 03:12:05,VALID,1000.71,VALID,0,VALID,91.1892,VALID,0,VALID,22.121,VALID,15,VALID,0.485938,
2009-06-11, 03:13:05,VALID,1000.74,VALID,0,VALID,91.1663,VALID,0,VALID,22.1032,VALID,15,VALID,0.640625,
2009-06-11, 03:14:05,VALID,1000.7,VALID,0,VALID,91.174,VALID,0,VALID,22.1227,VALID,15,VALID,0.629687,
2009-06-11, 03:15:05,VALID,1000.7,VALID,0,VALID,91.3189,VALID,0,VALID,22.121,VALID,15,VALID,0.317187,
2009-06-11, 03:16:05,VALID,1000.67,VALID,0,VALID,91.4257,VALID,0,VALID,22.1227,VALID,15,VALID,0.331641,
2009-06-11, 03:17:05,VALID,1000.66,VALID,0,VALID,91.6088,VALID,0,VALID,22.121,VALID,47,VALID,0.727344,
2009-06-11, 03:18:05,VALID,1000.67,VALID,0,VALID,91.6623,VALID,0,VALID,22.1015,VALID,61,VALID,1.12969,
2009-06-11, 03:19:05,VALID,1000.66,VALID,0,VALID,92.0209,VALID,0,VALID,22.1015,VALID,91,VALID,1.3332,
2009-06-11, 03:20:05,VALID,1000.65,VALID,0,VALID,92.326,VALID,0,VALID,22.1015,VALID,79,VALID,1.55039,
2009-06-11, 03:21:05,VALID,1000.63,VALID,0,VALID,91.998,VALID,0,VALID,22.121,VALID,59,VALID,1.61523,
2009-06-11, 03:22:05,VALID,1000.61,VALID,0,VALID,91.8911,VALID,0,VALID,22.1227,VALID,49,VALID,1.3543,
2009-06-11, 03:23:05,VALID,1000.64,VALID,0,VALID,91.8606,VALID,0,VALID,22.1015,VALID,79,VALID,1.13945,
2009-06-11, 03:24:05,VALID,1000.66,VALID,0,VALID,92.0209,VALID,0,VALID,22.121,VALID,101,VALID,1.41445,
2009-06-11, 03:25:05,VALID,1000.66,VALID,0,VALID,91.8606,VALID,0,VALID,22.0998,VALID,83,VALID,1.31289,
2009-06-11, 03:26:05,VALID,1000.69,VALID,0,VALID,91.6623,VALID,0,VALID,22.121,VALID,104,VALID,1.35938,
2009-06-11, 03:27:05,VALID,1000.68,VALID,0,VALID,91.1053,VALID,0,VALID,22.0998,VALID,97,VALID,1.45977,
2009-06-11, 03:28:05,VALID,1000.74,VALID,0,VALID,91.1206,VALID,0,VALID,22.121,VALID,95,VALID,1.3375,
2009-06-11, 03:29:05,VALID,1000.73,VALID,0,VALID,90.9374,VALID,0,VALID,22.16,VALID,107,VALID,1.58516,
2009-06-11, 03:30:05,VALID,1000.72,VALID,0,VALID,90.8535,VALID,0,VALID,22.1795,VALID,99,VALID,1.84141,
2009-06-11, 03:31:05,VALID,1000.71,VALID,0,VALID,90.9298,VALID,0,VALID,22.199,VALID,94,VALID,1.73242,
2009-06-11, 03:32:05,VALID,1000.76,VALID,0,VALID,90.9298,VALID,0,VALID,22.2186,VALID,81,VALID,1.60781,
2009-06-11, 03:33:05,VALID,1000.79,VALID,0,VALID,90.8764,VALID,0,VALID,22.199,VALID,143,VALID,1.58164,
2009-06-11, 03:34:05,VALID,1000.79,VALID,0,VALID,91.3494,VALID,0,VALID,22.2381,VALID,156,VALID,1.47656,
2009-06-11, 03:35:05,VALID,1000.8,VALID,0,VALID,90.9909,VALID,0,VALID,22.2576,VALID,117,VALID,1.23008,
2009-06-11, 03:36:05,VALID,1000.78,VALID,0,VALID,90.3042,VALID,0,VALID,22.2576,VALID,91,VALID,1.47187,
2009-06-11, 03:37:05,VALID,1000.76,VALID,0,VALID,89.8693,VALID,0,VALID,22.2771,VALID,81,VALID,1.77227,
2009-06-11, 03:38:05,VALID,1000.75,VALID,0,VALID,89.1368,VALID,0,VALID,22.2966,VALID,74,VALID,2.03242,
2009-06-11, 03:39:05,VALID,1000.78,VALID,0,VALID,89.8083,VALID,0,VALID,22.3356,VALID,89,VALID,1.26602,
2009-06-11, 03:40:05,VALID,1000.78,VALID,0,VALID,89.9685,VALID,0,VALID,22.3161,VALID,101,VALID,0.761328,
2009-06-11, 03:41:05,VALID,1000.8,VALID,0,VALID,90.1363,VALID,0,VALID,22.3161,VALID,101,VALID,0.194141,
2009-06-11, 03:42:05,VALID,1000.83,VALID,0,VALID,90.1745,VALID,0,VALID,22.2966,VALID,102,VALID,0.369531,
2009-06-11, 03:43:05,VALID,1000.8,VALID,0,VALID,90.1211,VALID,0,VALID,22.2966,VALID,103,VALID,0.239844,
2009-06-11, 03:44:05,VALID,1000.85,VALID,0,VALID,90.205,VALID,0,VALID,22.2771,VALID,103,VALID,0.2375,
2009-06-11, 03:45:05,VALID,1000.87,VALID,0,VALID,90.2279,VALID,0,VALID,22.2576,VALID,130,VALID,0.783984,